PAF5320 RPVP-ZZZZ

Flight info

Callsign PAF5320
Flight time N/A
Altitude 6500
Route PR MARIN
Aircraft C208/L-SDFGR/C

Departure

Time 2026-05-08 10:03
Airport Puerto Princesa International Airport / PAF Antonio Bautista Air Base (RPVP)

Arrival

Time N/A
Airport ZZZZ
Time Latitude Longitude Altitude Speed Heading
2026-05-08 09:52 9.74302 118.75913 57 ft 0 kts 317°
2026-05-08 09:59 9.74304 118.75911 57 ft 2 kts 315°
2026-05-08 10:00 9.74313 118.75878 58 ft 8 kts 270°
2026-05-08 10:00 9.74287 118.75815 59 ft 10 kts 227°
2026-05-08 10:00 9.74241 118.75768 61 ft 10 kts 225°
2026-05-08 10:00 9.74218 118.75662 63 ft 19 kts 271°
2026-05-08 10:01 9.74218 118.75559 66 ft 9 kts 311°
2026-05-08 10:01 9.74233 118.75574 64 ft 5 kts 140°
2026-05-08 10:01 9.74222 118.75609 64 ft 3 kts 91°
2026-05-08 10:01 9.74221 118.75643 64 ft 13 kts 92°
2026-05-08 10:02 9.74210 118.75876 58 ft 53 kts 91°
2026-05-08 10:02 9.74189 118.76365 45 ft 84 kts 93°
2026-05-08 10:02 9.74160 118.76985 149 ft 88 kts 101°
2026-05-08 10:02 9.74110 118.77590 358 ft 83 kts 93°
2026-05-08 10:03 9.74146 118.78182 446 ft 88 kts 91°
2026-05-08 10:03 9.74179 118.78810 560 ft 90 kts 90°
2026-05-08 10:03 9.74252 118.79419 743 ft 87 kts 84°
2026-05-08 10:03 9.74390 118.80034 874 ft 89 kts 79°
2026-05-08 10:04 9.74455 118.80626 1059 ft 85 kts 111°
2026-05-08 10:04 9.74047 118.81050 1177 ft 83 kts 113°
2026-05-08 10:04 9.74105 118.81598 1321 ft 78 kts 85°
2026-05-08 10:04 9.74006 118.82129 1443 ft 77 kts 86°
2026-05-08 10:05 9.74029 118.82675 1525 ft 80 kts 94°
2026-05-08 10:05 9.73980 118.83242 1622 ft 80 kts 82°
2026-05-08 10:05 9.73965 118.83811 1732 ft 82 kts 94°
2026-05-08 10:05 9.73948 118.84386 1857 ft 82 kts 86°
2026-05-08 10:06 9.73935 118.85037 1894 ft 98 kts 92°
2026-05-08 10:06 9.73911 118.85661 2228 ft 82 kts 89°
2026-05-08 10:06 9.73628 118.86168 2404 ft 89 kts 138°
2026-05-08 10:06 9.73103 118.86473 2610 ft 89 kts 153°
2026-05-08 10:07 9.72465 118.86345 2775 ft 103 kts 204°
2026-05-08 10:07 9.71941 118.85817 2939 ft 114 kts 243°
2026-05-08 10:07 9.72001 118.84995 3033 ft 127 kts 295°
2026-05-08 10:07 9.72234 118.84113 3185 ft 134 kts 278°
2026-05-08 10:08 9.72433 118.83170 3305 ft 137 kts 289°
2026-05-08 10:08 9.72696 118.82237 3432 ft 140 kts 284°
2026-05-08 10:08 9.72913 118.81264 3569 ft 141 kts 287°
2026-05-08 10:08 9.73171 118.80303 3721 ft 141 kts 285°
2026-05-08 10:09 9.73394 118.79336 3846 ft 141 kts 285°
2026-05-08 10:09 9.73646 118.78368 3974 ft 142 kts 285°
2026-05-08 10:09 9.73876 118.77392 4099 ft 142 kts 285°
2026-05-08 10:09 9.74293 118.76502 4225 ft 138 kts 314°
2026-05-08 10:10 9.74862 118.75716 4349 ft 140 kts 302°
2026-05-08 10:10 9.75344 118.74863 4469 ft 141 kts 308°
2026-05-08 10:10 9.75904 118.74049 4601 ft 141 kts 307°
2026-05-08 10:10 9.76423 118.73204 4730 ft 142 kts 307°
2026-05-08 10:11 9.76973 118.72373 4858 ft 142 kts 308°
2026-05-08 10:11 9.77505 118.71527 4986 ft 142 kts 307°
2026-05-08 10:11 9.78050 118.70691 5116 ft 142 kts 308°
2026-05-08 10:11 9.78589 118.69845 5246 ft 143 kts 306°
2026-05-08 10:12 9.79136 118.68999 5384 ft 143 kts 307°
2026-05-08 10:12 9.79680 118.68148 5527 ft 144 kts 306°
2026-05-08 10:12 9.80229 118.67294 5688 ft 145 kts 307°
2026-05-08 10:12 9.80780 118.66436 5834 ft 145 kts 306°
2026-05-08 10:13 9.81329 118.65550 5825 ft 153 kts 303°
2026-05-08 10:13 9.81864 118.64616 6005 ft 145 kts 310°
2026-05-08 10:13 9.82484 118.63840 6194 ft 146 kts 309°
2026-05-08 10:13 9.83018 118.62956 6456 ft 146 kts 303°
2026-05-08 10:14 9.83566 118.62017 6381 ft 171 kts 307°
2026-05-08 10:14 9.84231 118.60988 6349 ft 178 kts 307°
2026-05-08 10:14 9.84910 118.59989 6454 ft 167 kts 314°
2026-05-08 10:14 9.85490 118.58907 6369 ft 175 kts 296°
2026-05-08 10:15 9.86203 118.57971 6466 ft 164 kts 325°
2026-05-08 10:15 9.86960 118.57116 6521 ft 168 kts 303°
2026-05-08 10:15 9.87511 118.56054 6528 ft 171 kts 302°
2026-05-08 10:15 9.88141 118.55013 6530 ft 173 kts 306°
2026-05-08 10:16 9.88788 118.53985 6530 ft 172 kts 306°
2026-05-08 10:16 9.89432 118.52962 6528 ft 172 kts 307°
2026-05-08 10:16 9.90077 118.51961 6525 ft 172 kts 306°
2026-05-08 10:16 9.90725 118.50944 6525 ft 171 kts 307°
2026-05-08 10:17 9.91380 118.49930 6524 ft 171 kts 306°
2026-05-08 10:17 9.92025 118.48913 6526 ft 171 kts 306°
2026-05-08 10:17 9.92680 118.47903 6522 ft 171 kts 306°
2026-05-08 10:17 9.93325 118.46887 6519 ft 171 kts 306°
2026-05-08 10:18 9.93976 118.45879 6518 ft 170 kts 307°
2026-05-08 10:18 9.94619 118.44869 6516 ft 170 kts 306°
2026-05-08 10:18 9.95267 118.43864 6517 ft 171 kts 307°
2026-05-08 10:18 9.95915 118.42848 6514 ft 171 kts 306°
2026-05-08 10:19 9.96556 118.41851 6515 ft 170 kts 307°
2026-05-08 10:19 9.97201 118.40842 6514 ft 170 kts 306°
2026-05-08 10:19 9.97844 118.39835 6514 ft 170 kts 307°
2026-05-08 10:20 9.99132 118.37823 6514 ft 170 kts 307°
2026-05-08 10:20 9.99779 118.36821 6513 ft 170 kts 306°
2026-05-08 10:20 10.00421 118.35811 6514 ft 170 kts 307°
2026-05-08 10:20 10.01067 118.34810 6512 ft 170 kts 306°
2026-05-08 10:21 10.01707 118.33800 6511 ft 170 kts 306°
2026-05-08 10:21 10.02355 118.32798 6513 ft 169 kts 307°
2026-05-08 10:21 10.02985 118.31806 6513 ft 170 kts 306°
2026-05-08 10:21 10.03638 118.30789 6515 ft 170 kts 307°
2026-05-08 10:22 10.04271 118.29798 6511 ft 170 kts 306°
2026-05-08 10:22 10.04916 118.28792 6510 ft 169 kts 307°
2026-05-08 10:22 10.05557 118.27790 6509 ft 169 kts 306°
2026-05-08 10:22 10.06198 118.26786 6509 ft 169 kts 307°
2026-05-08 10:23 10.06840 118.25785 6510 ft 170 kts 306°
2026-05-08 10:23 10.07480 118.24780 6509 ft 170 kts 307°
2026-05-08 10:23 10.08125 118.23778 6507 ft 170 kts 306°
2026-05-08 10:23 10.08765 118.22771 6506 ft 170 kts 306°
2026-05-08 10:24 10.09412 118.21767 6509 ft 169 kts 306°
2026-05-08 10:24 10.10049 118.20762 6509 ft 169 kts 307°
2026-05-08 10:24 10.10694 118.19761 6509 ft 169 kts 306°
2026-05-08 10:24 10.11097 118.18644 6505 ft 171 kts 280°
2026-05-08 10:25 10.11339 118.17485 6503 ft 170 kts 289°
2026-05-08 10:25 10.11675 118.16333 6507 ft 170 kts 286°
2026-05-08 10:25 10.11949 118.15159 6509 ft 171 kts 285°
2026-05-08 10:25 10.12248 118.13989 6510 ft 171 kts 286°
2026-05-08 10:26 10.12533 118.12822 6511 ft 170 kts 285°
2026-05-08 10:26 10.12825 118.11655 6509 ft 170 kts 287°
2026-05-08 10:26 10.13112 118.10486 6507 ft 171 kts 285°
2026-05-08 10:26 10.13404 118.09317 6506 ft 171 kts 286°
2026-05-08 10:27 10.13693 118.08147 6508 ft 170 kts 285°
2026-05-08 10:27 10.13983 118.06979 6509 ft 170 kts 286°
2026-05-08 10:27 10.14269 118.05828 6509 ft 171 kts 286°
2026-05-08 10:27 10.14557 118.04658 6514 ft 171 kts 287°
2026-05-08 10:28 10.14849 118.03491 6514 ft 171 kts 286°
2026-05-08 10:28 10.15137 118.02320 6515 ft 170 kts 286°
2026-05-08 10:28 10.15427 118.01154 6513 ft 171 kts 285°
2026-05-08 10:28 10.15715 117.99983 6516 ft 171 kts 286°
2026-05-08 10:29 10.16008 117.98812 6513 ft 171 kts 286°
2026-05-08 10:29 10.16295 117.97639 6516 ft 171 kts 286°
2026-05-08 10:29 10.16490 117.96864 6514 ft 171 kts 286°
2026-05-08 10:29 10.16778 117.95692 6515 ft 171 kts 286°
2026-05-08 10:30 10.17168 117.94129 6515 ft 170 kts 287°
2026-05-08 10:30 10.17358 117.93356 6514 ft 170 kts 286°
2026-05-08 10:30 10.17645 117.92191 6515 ft 170 kts 286°
2026-05-08 10:30 10.17933 117.91027 6514 ft 170 kts 285°
2026-05-08 10:31 10.18219 117.89862 6514 ft 170 kts 286°
2026-05-08 10:31 10.18510 117.88702 6512 ft 170 kts 286°
2026-05-08 10:31 10.18888 117.87159 6514 ft 169 kts 287°
2026-05-08 10:31 10.19178 117.86001 6516 ft 169 kts 286°
2026-05-08 10:32 10.19368 117.85218 6515 ft 169 kts 286°
2026-05-08 10:32 10.19657 117.84056 6512 ft 170 kts 286°
2026-05-08 10:32 10.19942 117.82892 6509 ft 170 kts 286°
2026-05-08 10:32 10.20228 117.81745 6514 ft 170 kts 286°
2026-05-08 10:33 10.20514 117.80580 6512 ft 169 kts 285°
2026-05-08 10:33 10.20802 117.79422 6512 ft 169 kts 286°
2026-05-08 10:33 10.21087 117.78260 6511 ft 169 kts 285°
2026-05-08 10:33 10.21374 117.77101 6511 ft 170 kts 286°
2026-05-08 10:34 10.21661 117.75938 6510 ft 170 kts 285°
2026-05-08 10:34 10.21951 117.74771 6512 ft 170 kts 285°
2026-05-08 10:34 10.22235 117.73605 6511 ft 170 kts 285°
2026-05-08 10:34 10.22526 117.72441 6514 ft 170 kts 286°
2026-05-08 10:35 10.22807 117.71291 6513 ft 170 kts 285°
2026-05-08 10:35 10.23095 117.70127 6510 ft 170 kts 286°
2026-05-08 10:35 10.23383 117.68966 6509 ft 169 kts 285°
2026-05-08 10:35 10.23666 117.67806 6513 ft 170 kts 286°
2026-05-08 10:36 10.23955 117.66643 6514 ft 170 kts 285°
2026-05-08 10:36 10.24243 117.65471 6511 ft 170 kts 285°
2026-05-08 10:36 10.24530 117.64307 6511 ft 170 kts 286°
2026-05-08 10:36 10.24815 117.63145 6510 ft 170 kts 285°
2026-05-08 10:37 10.25103 117.61982 6513 ft 170 kts 286°
2026-05-08 10:37 10.25391 117.60815 6511 ft 170 kts 285°
2026-05-08 10:37 10.25678 117.59648 6512 ft 170 kts 286°
2026-05-08 10:37 10.25961 117.58498 6516 ft 171 kts 285°
2026-05-08 10:38 10.26248 117.57327 6518 ft 171 kts 286°
2026-05-08 10:38 10.26539 117.56156 6513 ft 171 kts 285°
2026-05-08 10:38 10.26825 117.54985 6513 ft 171 kts 286°
2026-05-08 10:38 10.27117 117.53813 6517 ft 171 kts 286°
2026-05-08 10:39 10.27400 117.52642 6517 ft 171 kts 286°
2026-05-08 10:39 10.27693 117.51467 6511 ft 172 kts 286°
2026-05-08 10:39 10.27976 117.50302 6514 ft 172 kts 285°
2026-05-08 10:39 10.28272 117.49114 6516 ft 171 kts 286°
2026-05-08 10:40 10.28554 117.47957 6516 ft 171 kts 286°
2026-05-08 10:40 10.28845 117.46781 6514 ft 171 kts 286°
2026-05-08 10:40 10.29131 117.45606 6512 ft 172 kts 286°
2026-05-08 10:40 10.29424 117.44428 6514 ft 171 kts 286°
2026-05-08 10:41 10.29710 117.43253 6513 ft 171 kts 285°
2026-05-08 10:41 10.30000 117.42079 6515 ft 171 kts 286°
2026-05-08 10:41 10.30284 117.40919 6514 ft 172 kts 286°
2026-05-08 10:41 10.30572 117.39743 6516 ft 171 kts 287°
2026-05-08 10:42 10.30862 117.38569 6514 ft 171 kts 285°
2026-05-08 10:42 10.31149 117.37396 6513 ft 171 kts 286°
2026-05-08 10:42 10.31437 117.36225 6512 ft 171 kts 285°
2026-05-08 10:42 10.31725 117.35047 6514 ft 172 kts 285°
2026-05-08 10:43 10.32015 117.33871 6517 ft 172 kts 286°
2026-05-08 10:43 10.32304 117.32689 6512 ft 172 kts 286°
2026-05-08 10:43 10.32594 117.31511 6515 ft 172 kts 286°
2026-05-08 10:43 10.32881 117.30337 6513 ft 171 kts 286°
2026-05-08 10:44 10.33168 117.29178 6517 ft 171 kts 286°
2026-05-08 10:44 10.33453 117.28004 6517 ft 171 kts 286°
2026-05-08 10:44 10.33742 117.26830 6516 ft 171 kts 286°
2026-05-08 10:44 10.34029 117.25654 6515 ft 171 kts 285°
2026-05-08 10:45 10.34318 117.24482 6514 ft 171 kts 286°
2026-05-08 10:45 10.34603 117.23312 6513 ft 170 kts 285°
2026-05-08 10:45 10.34888 117.22145 6513 ft 170 kts 286°
2026-05-08 10:45 10.35176 117.20982 6512 ft 170 kts 285°
2026-05-08 10:46 10.35458 117.19814 6513 ft 170 kts 285°
2026-05-08 10:46 10.35748 117.18648 6514 ft 170 kts 286°
2026-05-08 10:46 10.36028 117.17481 6511 ft 170 kts 285°
2026-05-08 10:46 10.36319 117.16315 6512 ft 171 kts 286°
2026-05-08 10:47 10.36604 117.15141 6519 ft 171 kts 285°
2026-05-08 10:47 10.36895 117.13965 6522 ft 172 kts 286°
2026-05-08 10:47 10.37182 117.12782 6515 ft 172 kts 285°
2026-05-08 10:47 10.37466 117.11606 6509 ft 171 kts 286°
2026-05-08 10:48 10.37756 117.10442 6508 ft 170 kts 285°
2026-05-08 10:48 10.38039 117.09274 6510 ft 171 kts 285°
2026-05-08 10:48 10.38328 117.08104 6511 ft 171 kts 285°
2026-05-08 10:48 10.38612 117.06933 6510 ft 171 kts 286°
2026-05-08 10:49 10.38893 117.05775 6511 ft 171 kts 286°
2026-05-08 10:49 10.39187 117.04595 6509 ft 170 kts 286°
2026-05-08 10:49 10.39463 117.03442 6510 ft 170 kts 286°
2026-05-08 10:49 10.39751 117.02277 6508 ft 170 kts 285°
2026-05-08 10:50 10.40032 117.01110 6511 ft 170 kts 286°
2026-05-08 10:50 10.40325 116.99939 6512 ft 171 kts 286°
2026-05-08 10:50 10.40609 116.98758 6512 ft 172 kts 285°
2026-05-08 10:50 10.40897 116.97583 6515 ft 171 kts 285°
2026-05-08 10:51 10.41181 116.96410 6512 ft 171 kts 286°
2026-05-08 10:51 10.41470 116.95240 6511 ft 170 kts 286°
2026-05-08 10:51 10.41748 116.94086 6513 ft 170 kts 285°
2026-05-08 10:51 10.42038 116.92903 6509 ft 170 kts 286°
2026-05-08 10:52 10.42319 116.91749 6511 ft 170 kts 286°
2026-05-08 10:52 10.42511 116.90961 6512 ft 170 kts 286°
2026-05-08 10:52 10.42890 116.89417 6513 ft 170 kts 286°
2026-05-08 10:52 10.43173 116.88251 6512 ft 170 kts 286°
2026-05-08 10:53 10.43458 116.87083 6515 ft 170 kts 285°
2026-05-08 10:53 10.43740 116.85918 6511 ft 170 kts 286°
2026-05-08 10:53 10.44028 116.84752 6514 ft 170 kts 286°
2026-05-08 10:53 10.44309 116.83581 6513 ft 171 kts 285°
2026-05-08 10:54 10.44598 116.82410 6513 ft 170 kts 286°
2026-05-08 10:54 10.44875 116.81260 6512 ft 170 kts 286°
2026-05-08 10:54 10.45162 116.80091 6512 ft 170 kts 286°
2026-05-08 10:54 10.45445 116.78926 6516 ft 170 kts 285°
2026-05-08 10:55 10.45727 116.77760 6515 ft 170 kts 286°
2026-05-08 10:55 10.46013 116.76597 6515 ft 170 kts 285°
2026-05-08 10:55 10.46293 116.75433 6510 ft 169 kts 286°
2026-05-08 10:55 10.46578 116.74277 6512 ft 168 kts 285°
2026-05-08 10:56 10.46855 116.73121 6513 ft 169 kts 286°
2026-05-08 10:56 10.47137 116.71978 6513 ft 169 kts 285°
2026-05-08 10:56 10.47416 116.70814 6517 ft 169 kts 285°
2026-05-08 10:56 10.47703 116.69654 6513 ft 169 kts 285°
2026-05-08 10:57 10.47981 116.68494 6513 ft 169 kts 285°
2026-05-08 10:57 10.48266 116.67335 6513 ft 169 kts 286°
2026-05-08 10:57 10.48832 116.65004 6515 ft 170 kts 287°
2026-05-08 10:58 10.49115 116.63835 6515 ft 170 kts 285°
2026-05-08 10:58 10.49398 116.62670 6514 ft 169 kts 286°
2026-05-08 10:58 10.49678 116.61522 6514 ft 169 kts 285°
2026-05-08 10:58 10.49957 116.60355 6512 ft 170 kts 286°
2026-05-08 10:59 10.50245 116.59194 6515 ft 169 kts 286°
2026-05-08 10:59 10.50522 116.58030 6514 ft 169 kts 286°
2026-05-08 10:59 10.50809 116.56866 6511 ft 170 kts 286°
2026-05-08 10:59 10.51087 116.55704 6512 ft 169 kts 285°
2026-05-08 11:00 10.51372 116.54544 6514 ft 169 kts 286°
2026-05-08 11:00 10.51650 116.53385 6514 ft 169 kts 285°
2026-05-08 11:00 10.51935 116.52226 6513 ft 169 kts 286°
2026-05-08 11:00 10.52214 116.51067 6516 ft 169 kts 285°
2026-05-08 11:01 10.52496 116.49903 6517 ft 169 kts 286°
2026-05-08 11:01 10.52778 116.48743 6516 ft 169 kts 285°
2026-05-08 11:01 10.53059 116.47582 6515 ft 169 kts 287°
2026-05-08 11:01 10.53342 116.46420 6514 ft 169 kts 286°
2026-05-08 11:02 10.53618 116.45271 6514 ft 170 kts 286°
2026-05-08 11:02 10.54181 116.42944 6511 ft 169 kts 286°
2026-05-08 11:02 10.54468 116.41780 6518 ft 169 kts 286°
2026-05-08 11:03 10.54744 116.40613 6514 ft 169 kts 286°
2026-05-08 11:03 10.55031 116.39450 6512 ft 169 kts 286°
2026-05-08 11:03 10.55309 116.38290 6514 ft 169 kts 286°
2026-05-08 11:03 10.55593 116.37126 6517 ft 169 kts 286°
2026-05-08 11:04 10.55869 116.35979 6518 ft 169 kts 285°
2026-05-08 11:04 10.56152 116.34806 6516 ft 169 kts 286°
2026-05-08 11:04 10.56433 116.33649 6514 ft 169 kts 286°
2026-05-08 11:04 10.56709 116.32506 6519 ft 169 kts 286°
2026-05-08 11:05 10.56992 116.31342 6516 ft 170 kts 285°
2026-05-08 11:05 10.57270 116.30175 6515 ft 170 kts 286°
2026-05-08 11:05 10.57557 116.29012 6516 ft 169 kts 285°
2026-05-08 11:05 10.57834 116.27847 6517 ft 170 kts 285°
2026-05-08 11:06 10.58119 116.26683 6515 ft 170 kts 285°
2026-05-08 11:06 10.58396 116.25516 6520 ft 170 kts 285°
2026-05-08 11:06 10.58683 116.24351 6518 ft 170 kts 285°
2026-05-08 11:06 10.58960 116.23185 6516 ft 170 kts 285°
2026-05-08 11:07 10.59244 116.22021 6515 ft 170 kts 286°
2026-05-08 11:07 10.59524 116.20857 6516 ft 169 kts 285°
2026-05-08 11:07 10.59804 116.19696 6514 ft 169 kts 285°
2026-05-08 11:07 10.60085 116.18534 6515 ft 169 kts 285°
2026-05-08 11:08 10.60362 116.17377 6514 ft 169 kts 286°
2026-05-08 11:08 10.60646 116.16220 6512 ft 169 kts 285°
2026-05-08 11:08 10.60921 116.15059 6514 ft 169 kts 285°
2026-05-08 11:08 10.61204 116.13901 6512 ft 169 kts 285°
2026-05-08 11:09 10.61477 116.12757 6512 ft 168 kts 285°
2026-05-08 11:09 10.61758 116.11601 6513 ft 169 kts 285°
2026-05-08 11:09 10.62036 116.10443 6510 ft 169 kts 285°
2026-05-08 11:09 10.62314 116.09287 6512 ft 168 kts 285°
2026-05-08 11:10 10.62593 116.08132 6507 ft 168 kts 285°
2026-05-08 11:10 10.62873 116.06976 6512 ft 169 kts 285°
2026-05-08 11:10 10.63150 116.05812 6514 ft 169 kts 286°
2026-05-08 11:10 10.63433 116.04656 6508 ft 168 kts 285°
2026-05-08 11:11 10.63707 116.03498 6511 ft 168 kts 285°
2026-05-08 11:11 10.63990 116.02342 6512 ft 168 kts 285°
2026-05-08 11:11 10.64265 116.01186 6514 ft 168 kts 285°
2026-05-08 11:11 10.64546 116.00030 6514 ft 168 kts 285°
2026-05-08 11:12 10.64822 115.98873 6517 ft 168 kts 285°
2026-05-08 11:12 10.65097 115.97736 6513 ft 168 kts 285°
2026-05-08 11:12 10.65375 115.96579 6516 ft 169 kts 285°
2026-05-08 11:12 10.65652 115.95420 6515 ft 169 kts 286°
2026-05-08 11:13 10.65934 115.94264 6513 ft 169 kts 285°
2026-05-08 11:13 10.66208 115.93107 6514 ft 169 kts 285°
2026-05-08 11:13 10.66491 115.91947 6514 ft 168 kts 285°
2026-05-08 11:13 10.66765 115.90790 6516 ft 169 kts 285°
2026-05-08 11:14 10.67048 115.89630 6511 ft 169 kts 285°
2026-05-08 11:14 10.67325 115.88461 6515 ft 170 kts 285°
2026-05-08 11:14 10.67605 115.87314 6518 ft 169 kts 285°
2026-05-08 11:14 10.67793 115.86529 6517 ft 169 kts 285°
2026-05-08 11:15 10.68161 115.84986 6517 ft 169 kts 285°
2026-05-08 11:15 10.68442 115.83823 6517 ft 169 kts 285°
2026-05-08 11:15 10.68718 115.82664 6515 ft 169 kts 285°
2026-05-08 11:15 10.68998 115.81505 6516 ft 169 kts 285°
2026-05-08 11:16 10.69276 115.80337 6515 ft 170 kts 285°
2026-05-08 11:16 10.69560 115.79170 6520 ft 170 kts 285°
2026-05-08 11:16 10.69836 115.78005 6518 ft 169 kts 285°
2026-05-08 11:16 10.70117 115.76848 6510 ft 166 kts 285°
2026-05-08 11:17 10.70300 115.76110 6399 ft 162 kts 286°
2026-05-08 11:17 10.70657 115.74622 6004 ft 162 kts 285°
2026-05-08 11:17 10.70918 115.73517 5760 ft 160 kts 286°
2026-05-08 11:17 10.71185 115.72426 5444 ft 159 kts 286°
2026-05-08 11:18 10.71447 115.71333 5093 ft 159 kts 285°
2026-05-08 11:18 10.71706 115.70240 4743 ft 159 kts 285°
2026-05-08 11:18 10.71875 115.69542 4547 ft 156 kts 285°
2026-05-08 11:18 10.72216 115.68106 4093 ft 156 kts 286°
2026-05-08 11:19 10.72392 115.67384 3869 ft 156 kts 286°
2026-05-08 11:19 10.72729 115.65962 3431 ft 157 kts 287°
2026-05-08 11:19 10.72987 115.64898 3139 ft 152 kts 286°
2026-05-08 11:19 10.73234 115.63859 2806 ft 151 kts 287°
2026-05-08 11:20 10.73482 115.62829 2522 ft 146 kts 287°
2026-05-08 11:20 10.73631 115.62178 2512 ft 138 kts 286°
2026-05-08 11:20 10.73935 115.60843 2529 ft 154 kts 288°
2026-05-08 11:20 10.74118 115.60134 2533 ft 159 kts 287°
2026-05-08 11:21 10.74388 115.59016 2529 ft 164 kts 286°
2026-05-08 11:21 10.74748 115.57518 2526 ft 163 kts 287°
2026-05-08 11:21 10.74923 115.56777 2521 ft 163 kts 287°
2026-05-08 11:21 10.75193 115.55654 2526 ft 163 kts 287°
2026-05-08 11:22 10.75459 115.54532 2523 ft 163 kts 287°
2026-05-08 11:22 10.75728 115.53410 2528 ft 164 kts 286°
2026-05-08 11:22 10.75996 115.52281 2528 ft 165 kts 286°
2026-05-08 11:22 10.76268 115.51150 2528 ft 164 kts 287°
2026-05-08 11:23 10.76540 115.50022 2526 ft 164 kts 288°
2026-05-08 11:23 10.76809 115.48886 2522 ft 165 kts 286°
2026-05-08 11:23 10.77079 115.47752 2523 ft 165 kts 286°
2026-05-08 11:23 10.77350 115.46618 2526 ft 165 kts 287°
2026-05-08 11:24 10.77618 115.45503 2521 ft 164 kts 287°
2026-05-08 11:24 10.77887 115.44373 2522 ft 165 kts 287°
2026-05-08 11:24 10.78156 115.43242 2525 ft 164 kts 287°
2026-05-08 11:24 10.78427 115.42113 2524 ft 163 kts 287°
2026-05-08 11:25 10.78695 115.40987 2519 ft 165 kts 287°
2026-05-08 11:25 10.78969 115.39843 2521 ft 167 kts 287°
2026-05-08 11:25 10.79243 115.38695 2522 ft 165 kts 283°
2026-05-08 11:25 10.79518 115.37567 2517 ft 164 kts 286°
2026-05-08 11:26 10.79772 115.36450 2519 ft 165 kts 288°
2026-05-08 11:26 10.80048 115.35318 2518 ft 159 kts 287°
2026-05-08 11:26 10.80304 115.34253 2432 ft 156 kts 285°
2026-05-08 11:26 10.80548 115.33198 2344 ft 152 kts 287°
2026-05-08 11:27 10.80804 115.32156 2307 ft 151 kts 287°
2026-05-08 11:27 10.81045 115.31126 2242 ft 144 kts 288°
2026-05-08 11:27 10.81296 115.30136 1849 ft 143 kts 288°
2026-05-08 11:27 10.81525 115.29152 1497 ft 143 kts 286°
2026-05-08 11:28 10.81755 115.28116 1366 ft 153 kts 287°
2026-05-08 11:28 10.82011 115.27054 1366 ft 155 kts 287°
2026-05-08 11:28 10.82270 115.25973 1371 ft 160 kts 287°
2026-05-08 11:28 10.82533 115.24875 1361 ft 158 kts 288°
2026-05-08 11:29 10.82796 115.23793 1365 ft 158 kts 287°
2026-05-08 11:29 10.83051 115.22697 1365 ft 158 kts 286°
2026-05-08 11:29 10.83306 115.21628 1354 ft 156 kts 287°
2026-05-08 11:29 10.83566 115.20546 1359 ft 159 kts 288°
2026-05-08 11:30 10.83825 115.19458 1349 ft 157 kts 287°
2026-05-08 11:30 10.84078 115.18377 1351 ft 158 kts 288°
2026-05-08 11:30 10.84336 115.17298 1363 ft 155 kts 290°
2026-05-08 11:30 10.84661 115.16254 1356 ft 158 kts 287°
2026-05-08 11:31 10.84850 115.15150 1356 ft 157 kts 284°
2026-05-08 11:31 10.85109 115.14072 1358 ft 157 kts 289°
2026-05-08 11:31 10.85367 115.12984 1361 ft 159 kts 287°
2026-05-08 11:31 10.85619 115.11879 1359 ft 161 kts 287°
2026-05-08 11:32 10.85884 115.10790 1363 ft 158 kts 288°
2026-05-08 11:32 10.86140 115.09705 1370 ft 158 kts 288°
2026-05-08 11:32 10.86399 115.08614 1366 ft 159 kts 288°
2026-05-08 11:32 10.86661 115.07515 1365 ft 159 kts 286°
2026-05-08 11:33 10.86914 115.06434 1360 ft 158 kts 286°
2026-05-08 11:33 10.87174 115.05349 1354 ft 157 kts 287°
2026-05-08 11:33 10.87432 115.04265 1355 ft 157 kts 286°
2026-05-08 11:33 10.87688 115.03184 1364 ft 157 kts 287°
2026-05-08 11:34 10.87945 115.02095 1364 ft 159 kts 286°
2026-05-08 11:34 10.88207 115.00999 1361 ft 162 kts 289°
2026-05-08 11:34 10.88475 114.99866 1365 ft 166 kts 290°
2026-05-08 11:34 10.88757 114.98710 1358 ft 169 kts 290°
2026-05-08 11:35 10.89020 114.97576 1351 ft 162 kts 290°
2026-05-08 11:35 10.89284 114.96468 1358 ft 161 kts 288°
2026-05-08 11:35 10.89539 114.95367 1355 ft 162 kts 288°
2026-05-08 11:35 10.89813 114.94238 1369 ft 168 kts 289°
2026-05-08 11:36 10.90089 114.93064 1368 ft 173 kts 289°
2026-05-08 11:36 10.90379 114.91868 1363 ft 175 kts 289°
2026-05-08 11:36 10.90665 114.90667 1362 ft 175 kts 288°
2026-05-08 11:36 10.90926 114.89537 1342 ft 144 kts 290°
2026-05-08 11:37 10.91147 114.88568 1346 ft 145 kts 290°
2026-05-08 11:37 10.91385 114.87529 1362 ft 153 kts 290°
2026-05-08 11:37 10.91648 114.86471 1363 ft 156 kts 289°
2026-05-08 11:37 10.91908 114.85378 1367 ft 160 kts 287°
2026-05-08 11:38 10.92166 114.84280 1362 ft 158 kts 289°
2026-05-08 11:38 10.92424 114.83201 1359 ft 156 kts 289°
2026-05-08 11:38 10.92671 114.82137 1357 ft 152 kts 291°
2026-05-08 11:38 10.92919 114.81096 1356 ft 151 kts 290°
2026-05-08 11:39 10.93157 114.80076 1351 ft 149 kts 290°
2026-05-08 11:39 10.93400 114.79055 1355 ft 148 kts 289°
2026-05-08 11:39 10.93639 114.78040 1350 ft 147 kts 289°
2026-05-08 11:39 10.93883 114.77019 1354 ft 150 kts 289°
2026-05-08 11:40 10.94127 114.75977 1355 ft 153 kts 288°
2026-05-08 11:40 10.94376 114.74921 1359 ft 153 kts 288°
2026-05-08 11:40 10.94625 114.73880 1360 ft 151 kts 288°
2026-05-08 11:40 10.94867 114.72844 1361 ft 149 kts 289°
2026-05-08 11:41 10.95112 114.71811 1354 ft 151 kts 287°
2026-05-08 11:41 10.95356 114.70767 1352 ft 152 kts 288°
2026-05-08 11:41 10.95603 114.69733 1355 ft 152 kts 287°
2026-05-08 11:41 10.95848 114.68679 1350 ft 149 kts 289°
2026-05-08 11:42 10.96091 114.67675 1362 ft 148 kts 290°
2026-05-08 11:42 10.96330 114.66646 1354 ft 150 kts 288°
2026-05-08 11:42 10.96570 114.65619 1356 ft 149 kts 288°
2026-05-08 11:42 10.96817 114.64590 1354 ft 150 kts 285°
2026-05-08 11:43 10.97054 114.63564 1356 ft 148 kts 288°
2026-05-08 11:43 10.97303 114.62543 1365 ft 149 kts 289°
2026-05-08 11:43 10.97542 114.61508 1368 ft 152 kts 288°
2026-05-08 11:43 10.97789 114.60459 1367 ft 151 kts 289°
2026-05-08 11:44 10.98031 114.59428 1359 ft 149 kts 288°
2026-05-08 11:44 10.98272 114.58408 1357 ft 148 kts 289°
2026-05-08 11:44 10.98513 114.57390 1359 ft 149 kts 289°
2026-05-08 11:44 10.98756 114.56360 1361 ft 150 kts 288°
2026-05-08 11:45 10.98999 114.55323 1361 ft 151 kts 288°
2026-05-08 11:45 10.99246 114.54284 1369 ft 152 kts 288°
2026-05-08 11:45 10.99494 114.53222 1365 ft 156 kts 288°
2026-05-08 11:45 10.99747 114.52139 1366 ft 158 kts 288°
2026-05-08 11:46 11.00006 114.51053 1366 ft 158 kts 289°
2026-05-08 11:46 11.00261 114.49974 1363 ft 155 kts 289°
2026-05-08 11:46 11.00426 114.49269 1366 ft 154 kts 288°
2026-05-08 11:46 11.00756 114.47864 1361 ft 155 kts 289°
2026-05-08 11:47 11.01004 114.46798 1362 ft 155 kts 290°
2026-05-08 11:47 11.01261 114.45727 1363 ft 156 kts 290°
2026-05-08 11:47 11.01509 114.44657 1356 ft 154 kts 288°
2026-05-08 11:47 11.01592 114.44299 1360 ft 154 kts 289°
2026-05-08 11:48 11.02005 114.42551 1361 ft 153 kts 289°
2026-05-08 11:48 11.02254 114.41492 1362 ft 155 kts 291°
2026-05-08 11:48 11.02506 114.40421 1364 ft 156 kts 289°
2026-05-08 11:48 11.02591 114.40061 1364 ft 157 kts 289°